Vertical_Velocity
-0 1 4 4 -5 -7 -4 -3 -3 -3 -1 -7 -0 -5 0 -3 -1 4 -3 -3 -1 2 -2 -3 0 2 2 1 -1 3 7 7 3 -3 2 1 2 3 -2 0 2 -1 -2 -4
-2 -1 1 -5 -3 -4 -2 -0 3 -1 -4 -5 5 -2 2 -1 -2 4 -2 -3 -3 -3 1 -0 -0 0 2 0 5 2 -0 12 7 -2 0 3 4 3 -1 1 3 2 1 0
3 3 -3 -1 -2 -2 -3 0 4 2 -8 -8 -6 -7 -5 3 -3 2 0 4 -7 -0 1 0 2 -0 1 1 6 1 4 3 -1 2 1 2 2 2 -2 -4 -4 -2 3 3
1 5 -3 -2 -0 -3 11 -6 -3 -3 -4 21 -10 -5 -9 -2 3 -1 1 1 2 -1 -1 -2 1 2 3 1 -1 -3 -5 0 2 -3 1 3 4 3 -1 -2 -1 -0 0 -1
11 -2 -0 -0 -0 -6 26 -4 -1 -3 0 -4 10 4 12 -14 2 3 1 -0 2 0 3 1 0 -3 2 1 1 2 -5 2 2 4 1 4 1 -0 -3 -3 -3 -4 1 3
10 -4 -1 7 -2 -3 -5 -2 -4 -6 1 9 8 -0 -4 12 -0 3 -1 -1 2 -1 4 1 -2 1 1 -2 2 -1 1 3 3 5 7 3 2 -2 -2 -5 -2 -2 -6 1
0 -0 -0 -4 4 -2 -3 3 3 8 10 -1 -5 -1 -10 1 -5 -0 3 0 2 2 0 -2 -0 1 -1 -2 -1 4 0 0 2 4 3 -0 -2 -3 -1 0 1 -3 -2 -2
-0 18 -1 0 -7 8 -7 6 6 1 2 2 -13 -2 13 -5 -4 3 5 1 -0 2 1 2 2 -1 -0 -1 -1 -0 2 4 3 2 2 -2 0 -4 -1 -3 -5 -3 -2 -3
1 4 -5 -3 1 -3 -1 -10 -3 5 -11 4 3 -5 -16 -4 -3 2 3 2 -4 2 2 0 3 2 2 -1 1 4 2 2 0 2 1 -1 -4 -5 -0 -3 -2 -2 -3 -2
12 7 -0 0 -4 -5 -3 17 1 -6 4 -1 3 -6 8 -2 2 7 1 -3 -0 -3 -3 -1 0 1 2 4 1 -1 2 0 1 -0 2 -3 -3 -6 -3 -2 1 -2 -3 -2
8 -4 7 -8 -12 10 -7 -2 -9 7 2 8 1 -1 -19 -5 -0 7 -5 -6 -1 -1 -0 -0 -1 2 0 2 -3 -3 -5 -2 -3 -1 -3 -2 -6 -4 -3 -0 -1 -2 -1 -1
-2 7 -1 -2 5 -15 -12 4 10 12 2 -4 -3 -18 -5 -4 0 2 -4 -2 2 -0 -2 1 1 0 4 4 -2 4 -1 -4 -0 -0 -2 -4 -2 -5 -2 -3 -3 -3 -3 1
-7 -2 4 1 5 -3 -7 -2 -6 1 -8 -3 10 5 -5 -7 2 2 1 -4 2 -2 0 2 -2 3 5 -2 4 -0 3 4 -2 1 -5 -1 0 1 -3 -2 -4 -3 -1 3
2 2 -7 12 11 21 -1 -4 -5 -0 11 3 -10 -6 -9 2 5 -3 7 -1 -2 -3 0 -2 0 0 1 8 -18 5 3 -1 -2 2 -0 0 1 -4 -4 -2 -5 -5 0 2
3 -2 0 -2 -4 -7 3 9 -0 -2 -11 -1 22 -6 7 5 -4 4 3 2 2 -1 -1 -4 -8 -5 -3 -6 5 1 0 -6 -1 4 1 -1 -0 -4 -2 -3 0 -6 -2 3
-0 4 -1 -4 -4 -3 -1 -2 6 -1 4 -4 1 -7 -9 0 -4 4 2 5 -2 0 2 -0 -2 1 2 -5 2 4 -1 -1 1 3 -2 -4 -1 -2 -2 -0 -3 -6 -5 1
-0 11 -6 -5 -5 -0 2 -11 2 1 2 -2 10 14 -9 1 4 -1 3 5 2 0 -2 4 0 -3 -0 -3 -2 -4 -3 -2 0 -6 -2 4 -1 0 -3 -1 -3 -4 -4 -4
-1 -4 6 -8 1 8 7 -10 -10 2 2 1 -4 0 1 2 -7 -2 0 3 0 2 0 -2 -0 -3 -1 -1 -0 -2 -2 -1 -2 -3 -2 -0 -0 1 -1 -2 -1 -2 1 1
0 -5 11 -0 -4 -13 0 -10 -3 7 -5 -9 3 1 -1 -4 -6 -17 3 4 5 -3 1 -1 1 -3 -3 -0 2 4 1 -2 -3 -0 -3 -0 4 6 -1 2 -2 -1 1 -1
1 -2 -6 12 6 -1 -10 -4 -6 1 -12 -10 4 4 1 -2 -11 22 -0 4 8 7 5 6 2 -0 2 -1 -1 -1 -1 -5 -5 -2 -7 -3 -0 1 -1 1 2 -1 -2 -2
-0 -0 -8 -6 -1 -2 -2 -6 -1 4 10 5 5 0 -2 -0 -4 -3 1 4 13 6 6 7 9 6 5 7 4 -0 2 3 -2 -1 -2 -1 -3 0 2 -1 2 1 -3 0
-7 0 -3 2 11 1 -3 -6 -0 9 5 2 1 3 0 -1 -1 -1 0 -1 7 4 -1 0 -3 -3 -1 4 6 -0 -1 5 2 -0 -1 -2 -2 -1 -3 3 1 -1 -1 2
-8 14 13 11 11 -5 3 -2 -2 2 2 0 -0 -4 -2 -4 -1 -1 -1 -0 -1 -4 -1 2 3 2 -3 -0 4 13 -24 -8 -4 -1 -0 -2 -2 0 1 0 -3 1 2 5
-12 1 1 -5 -12 1 1 0 1 -1 -1 -4 -1 -0 -1 0 -1 -0 -0 -0 2 2 2 3 1 -0 -3 -1 2 7 2 -0 -3 -3 -2 -1 -0 -0 1 -2 19 5 10 -5
28 -3 5 -1 3 4 2 -2 -3 -5 -5 -5 -2 -1 -1 0 -3 -0 -1 -0 2 1 1 -1 1 2 -2 -0 2 3 -1 -2 -2 -3 -1 0 -1 -0 0 -0 -1 0 2 -1
-3 7 1 42 -0 2 -2 -1 -2 -2 -3 -1 -1 1 2 -0 1 0 1 0 0 1 2 -0 -0 1 2 1 1 3 3 -1 -0 -1 -2 1 1 -3 -0 -0 -2 -0 -1 3
Height
3186 3191 3192 3192 3192 3193 3193 3195 3195 3195 3194 3194 3195 3194 3193 3191 3190 3189 3187 3186 3187 3188 3188 3189 3189 3188 3187 3188 3188 3188 3188 3188 3190 3192 3193 3194 3194 3192 3191 3189 3187 3184 3182 3180
3186 3188 3189 3188 3189 3191 3192 3194 3193 3193 3192 3193 3193 3192 3191 3189 3188 3187 3185 3183 3184 3185 3185 3186 3186 3185 3183 3184 3185 3185 3187 3184 3185 3189 3191 3192 3192 3190 3188 3184 3180 3177 3175 3172
3186 3186 3185 3186 3188 3190 3191 3192 3192 3192 3191 3191 3190 3188 3188 3187 3186 3184 3183 3182 3182 3182 3183 3183 3184 3184 3182 3181 3183 3184 3183 3182 3183 3187 3189 3189 3189 3187 3184 3180 3176 3173 3169 3165
3183 3184 3183 3184 3187 3188 3189 3189 3190 3191 3191 3187 3187 3184 3183 3185 3184 3182 3181 3180 3179 3180 3180 3181 3182 3182 3180 3180 3181 3183 3181 3182 3184 3187 3188 3188 3186 3184 3182 3178 3173 3169 3166 3162
3181 3179 3180 3183 3185 3186 3188 3187 3189 3189 3188 3187 3185 3185 3179 3181 3182 3182 3179 3178 3177 3178 3178 3179 3180 3179 3178 3177 3178 3179 3179 3181 3183 3186 3186 3186 3184 3181 3178 3175 3172 3167 3163 3160
3178 3176 3179 3182 3183 3184 3185 3187 3188 3187 3186 3183 3181 3184 3176 3178 3180 3180 3179 3176 3176 3176 3177 3178 3178 3177 3177 3176 3176 3177 3178 3178 3181 3183 3184 3184 3182 3180 3177 3173 3169 3165 3160 3156
3175 3176 3177 3178 3181 3183 3184 3186 3182 3180 3178 3176 3180 3181 3177 3177 3177 3177 3177 3174 3174 3175 3176 3177 3176 3176 3175 3175 3175 3176 3178 3179 3181 3183 3183 3183 3182 3179 3176 3172 3169 3164 3159 3155
3172 3172 3174 3175 3177 3180 3181 3183 3179 3174 3171 3172 3179 3176 3174 3175 3175 3174 3173 3172 3173 3173 3175 3175 3175 3175 3174 3174 3175 3176 3177 3179 3180 3182 3182 3181 3180 3177 3174 3171 3167 3163 3159 3154
3170 3171 3171 3171 3173 3178 3178 3179 3180 3177 3177 3176 3172 3173 3173 3173 3172 3172 3171 3170 3171 3172 3173 3174 3174 3174 3174 3173 3174 3176 3177 3179 3180 3181 3180 3180 3178 3176 3173 3170 3166 3163 3159 3155
3168 3169 3170 3170 3171 3172 3175 3175 3177 3176 3171 3171 3166 3171 3169 3171 3171 3172 3169 3169 3169 3170 3171 3171 3171 3172 3173 3174 3174 3176 3177 3178 3178 3178 3178 3178 3176 3175 3172 3168 3165 3163 3159 3155
3167 3168 3168 3169 3169 3168 3172 3172 3172 3170 3170 3164 3162 3162 3167 3170 3170 3170 3168 3168 3167 3168 3168 3168 3169 3170 3171 3172 3174 3175 3175 3175 3175 3176 3176 3176 3176 3173 3171 3168 3165 3162 3158 3155
3163 3165 3165 3165 3165 3166 3167 3168 3169 3168 3168 3168 3167 3164 3164 3167 3167 3166 3165 3165 3165 3166 3166 3166 3167 3167 3169 3170 3171 3173 3173 3172 3173 3174 3175 3175 3174 3172 3171 3168 3164 3160 3157 3155
3159 3161 3161 3162 3164 3162 3163 3165 3167 3168 3167 3165 3164 3161 3162 3164 3164 3163 3162 3162 3162 3163 3163 3164 3165 3165 3167 3167 3169 3171 3170 3171 3172 3173 3174 3173 3173 3172 3170 3167 3164 3160 3156 3155
3155 3157 3157 3152 3155 3155 3159 3161 3162 3164 3164 3160 3161 3161 3162 3162 3162 3161 3160 3158 3159 3160 3161 3162 3163 3165 3165 3163 3167 3168 3170 3171 3171 3171 3171 3171 3171 3171 3169 3166 3163 3160 3156 3155
3153 3154 3155 3155 3155 3156 3156 3156 3158 3159 3160 3160 3156 3159 3160 3160 3159 3159 3158 3155 3156 3158 3159 3160 3161 3162 3163 3163 3166 3167 3167 3168 3169 3169 3170 3170 3170 3169 3167 3165 3162 3160 3156 3154
3149 3152 3152 3153 3153 3154 3154 3154 3155 3156 3157 3158 3158 3158 3157 3157 3156 3156 3155 3152 3153 3155 3156 3157 3159 3161 3163 3164 3165 3166 3166 3167 3168 3169 3169 3168 3168 3167 3166 3164 3161 3159 3157 3155
3147 3149 3150 3149 3150 3151 3151 3150 3151 3152 3154 3155 3154 3155 3155 3155 3154 3153 3152 3151 3151 3153 3154 3155 3157 3159 3160 3163 3163 3164 3165 3166 3166 3167 3167 3167 3166 3165 3163 3161 3160 3158 3156 3155
3142 3145 3148 3146 3147 3147 3145 3146 3148 3149 3150 3151 3151 3151 3152 3152 3152 3151 3150 3149 3148 3149 3151 3152 3153 3156 3158 3160 3162 3163 3163 3163 3164 3165 3165 3165 3163 3162 3160 3159 3157 3156 3154 3154
3139 3141 3144 3143 3142 3143 3142 3143 3146 3147 3147 3146 3147 3148 3148 3149 3148 3148 3147 3145 3145 3146 3147 3148 3151 3153 3155 3158 3159 3160 3161 3161 3162 3162 3162 3161 3159 3158 3157 3156 3155 3153 3152 3152
3134 3137 3141 3139 3138 3135 3139 3137 3141 3143 3144 3143 3144 3144 3145 3146 3146 3144 3142 3141 3141 3143 3144 3146 3149 3150 3153 3155 3156 3157 3158 3158 3159 3159 3158 3157 3155 3154 3153 3153 3151 3150 3149 3148
3128 3131 3133 3134 3134 3134 3132 3135 3138 3141 3142 3137 3139 3140 3141 3142 3141 3138 3137 3137 3139 3142 3143 3145 3147 3150 3152 3153 3154 3154 3154 3154 3154 3154 3154 3152 3150 3149 3149 3148 3147 3146 3145 3145
3122 3126 3127 3130 3129 3131 3129 3133 3136 3135 3133 3135 3136 3137 3137 3137 3136 3134 3133 3133 3135 3137 3139 3140 3142 3144 3147 3149 3150 3151 3150 3150 3150 3149 3148 3147 3145 3144 3144 3142 3142 3142 3142 3141
3120 3120 3120 3124 3125 3124 3125 3127 3129 3130 3131 3132 3133 3134 3133 3133 3132 3131 3130 3130 3131 3134 3136 3137 3139 3141 3142 3144 3144 3144 3143 3147 3145 3144 3143 3141 3140 3139 3137 3136 3136 3136 3138 3137
3111 3113 3117 3120 3120 3120 3122 3124 3125 3126 3127 3128 3130 3130 3131 3130 3130 3130 3129 3129 3130 3131 3132 3133 3134 3135 3136 3136 3137 3139 3140 3140 3139 3138 3137 3135 3134 3132 3131 3131 3131 3131 3132 3132
3107 3110 3113 3115 3115 3117 3117 3118 3120 3121 3122 3124 3126 3126 3127 3127 3127 3127 3127 3126 3127 3127 3128 3129 3130 3131 3132 3131 3132 3133 3134 3135 3134 3133 3131 3130 3128 3127 3127 3127 3127 3127 3127 3128
3103 3106 3110 3110 3110 3112 3113 3114 3116 3117 3118 3119 3120 3121 3121 3122 3122 3122 3122 3123 3123 3123 3123 3124 3124 3125 3125 3126 3128 3129 3129 3129 3128 3126 3126 3125 3124 3124 3125 3124 3124 3125 3125 3125